User: anonymous   Login
Location: Malvern Link
(52.1333°N, 2.3000°W)
Time: 23:59:24
(UTC+00:00)
Language:

DUCHIFAT 1 - Orbit

View from above orbital plane
View from above orbital plane
View from above satellite
View from above satellite

Ground track
Ground track

The orbit data is extracted from the following two-line orbital elements,

1 40021U 14033M   22179.53332506  .00002222  00000-0  21963-3 0  9998
2 40021  98.0128 129.9355 0012821  11.9785 348.1736 14.92931959436351
Epoch (UTC): 28 June 2022 12:47:59
Eccentricity: 0.0012821
inclination: 98.0128°
perigee height: 580 km
apogee height: 598 km
right ascension of ascending node: 129.9355°
argument of perigee: 11.9785°
revolutions per day: 14.92931959
mean anomaly at epoch: 348.1736°
orbit number at epoch: 43635

The dashed part of the orbit path shows where the satellite is in the earth's shadow,  

DLR